TimeCST,TemperatureF,Dew PointF,Humidity,Sea Level PressureIn,VisibilityMPH,Wind Direction,Wind SpeedMPH,Gust SpeedMPH,PrecipitationIn,Events,Conditions,WindDirDegrees,DateUTC
7:35 AM,48.2,46.4,93,29.97,0.5,SSE,6.9,-,N/A,Fog,Fog,150,2012-12-06 13:35:00
7:55 AM,50.0,48.2,94,29.98,0.2,SSE,5.8,-,N/A,Fog,Fog,150,2012-12-06 13:55:00
8:15 AM,50.0,50.0,100,29.98,0.5,SSE,5.8,-,N/A,Fog,Fog,150,2012-12-06 14:15:00
8:35 AM,51.8,50.0,94,29.98,1.8,SE,8.1,-,N/A,,Overcast,140,2012-12-06 14:35:00
8:55 AM,51.8,51.8,100,29.96,2.0,SSE,11.5,-,N/A,,Overcast,150,2012-12-06 14:55:00
9:15 AM,51.8,51.8,100,29.97,3.0,South,11.5,-,N/A,,Overcast,170,2012-12-06 15:15:00
9:35 AM,53.6,51.8,94,29.98,4.0,South,10.4,17.3,N/A,,Overcast,180,2012-12-06 15:35:00
9:55 AM,53.6,53.6,100,29.97,5.0,South,13.8,-,N/A,,Overcast,190,2012-12-06 15:55:00
10:15 AM,53.6,53.6,100,29.97,10.0,South,16.1,-,N/A,,Overcast,180,2012-12-06 16:15:00
10:35 AM,55.4,53.6,94,29.95,10.0,South,16.1,-,N/A,,Overcast,180,2012-12-06 16:35:00
10:55 AM,55.4,51.8,88,29.95,10.0,South,17.3,21.9,N/A,,Overcast,170,2012-12-06 16:55:00
11:15 AM,57.2,51.8,82,29.94,10.0,South,16.1,-,N/A,,Overcast,170,2012-12-06 17:15:00
11:35 AM,59.0,51.8,77,29.93,10.0,South,15.0,-,N/A,,Overcast,170,2012-12-06 17:35:00
11:55 AM,59.0,51.8,77,29.91,10.0,SSE,16.1,-,N/A,,Mostly Cloudy,160,2012-12-06 17:55:00
12:15 PM,60.8,51.8,72,29.90,10.0,SSE,16.1,23.0,N/A,,Clear,160,2012-12-06 18:15:00
12:35 PM,62.6,51.8,68,29.88,10.0,South,17.3,20.7,N/A,,Clear,170,2012-12-06 18:35:00
12:55 PM,62.6,50.0,63,29.88,10.0,SSE,16.1,21.9,N/A,,Clear,160,2012-12-06 18:55:00
1:15 PM,64.4,50.0,59,29.87,10.0,SSE,16.1,24.2,N/A,,Clear,160,2012-12-06 19:15:00
1:35 PM,64.4,50.0,59,29.86,10.0,SSE,17.3,24.2,N/A,,Clear,160,2012-12-06 19:35:00
1:55 PM,64.4,50.0,59,29.84,10.0,South,18.4,-,N/A,,Clear,170,2012-12-06 19:55:00
2:15 PM,66.2,50.0,56,29.83,10.0,South,18.4,25.3,N/A,,Clear,170,2012-12-06 20:15:00
2:35 PM,66.2,50.0,56,29.82,10.0,SSE,18.4,-,N/A,,Clear,160,2012-12-06 20:35:00
2:55 PM,66.2,48.2,52,29.82,10.0,South,19.6,24.2,N/A,,Clear,170,2012-12-06 20:55:00
3:15 PM,66.2,50.0,56,29.81,10.0,SSE,16.1,-,N/A,,Clear,150,2012-12-06 21:15:00
3:35 PM,66.2,48.2,52,29.81,10.0,SSE,19.6,-,N/A,,Clear,160,2012-12-06 21:35:00
3:55 PM,66.2,48.2,52,29.80,10.0,SSE,19.6,24.2,N/A,,Clear,160,2012-12-06 21:55:00
4:15 PM,66.2,48.2,52,29.80,10.0,SSE,16.1,21.9,N/A,,Clear,160,2012-12-06 22:15:00
4:35 PM,64.4,48.2,56,29.81,10.0,SSE,11.5,-,N/A,,Clear,160,2012-12-06 22:35:00
4:55 PM,64.4,50.0,59,29.81,10.0,SSE,12.7,-,N/A,,Clear,160,2012-12-06 22:55:00
5:15 PM,64.4,50.0,59,29.82,10.0,SSE,11.5,-,N/A,,Clear,160,2012-12-06 23:15:00
5:35 PM,62.6,50.0,63,29.82,10.0,SSE,9.2,-,N/A,,Clear,160,2012-12-06 23:35:00
5:55 PM,60.8,50.0,68,29.84,10.0,South,4.6,-,N/A,,Clear,170,2012-12-06 23:55:00
6:15 PM,59.0,48.2,67,29.85,10.0,Calm,Calm,-,N/A,,Clear,0,2012-12-07 00:15:00
6:35 PM,55.4,48.2,77,29.85,10.0,SE,3.5,-,N/A,,Clear,140,2012-12-07 00:35:00
6:55 PM,53.6,46.4,77,29.86,10.0,ESE,4.6,-,N/A,,Clear,110,2012-12-07 00:55:00
7:15 PM,51.8,46.4,82,29.87,10.0,East,4.6,-,N/A,,Clear,100,2012-12-07 01:15:00
7:35 PM,51.8,46.4,82,29.86,10.0,ESE,3.5,-,N/A,,Clear,120,2012-12-07 01:35:00
7:55 PM,53.6,48.2,82,29.87,10.0,ESE,5.8,-,N/A,,Clear,120,2012-12-07 01:55:00
8:35 PM,53.6,50.0,88,29.85,10.0,SE,9.2,-,N/A,,Clear,130,2012-12-07 02:35:00
8:55 PM,53.6,50.0,88,29.85,10.0,SE,9.2,-,N/A,,Clear,130,2012-12-07 02:55:00
9:15 PM,53.6,50.0,88,29.86,10.0,SE,9.2,-,N/A,,Clear,130,2012-12-07 03:15:00
9:35 PM,53.6,50.0,88,29.86,10.0,ESE,10.4,-,N/A,,Clear,120,2012-12-07 03:35:00
9:55 PM,53.6,50.0,88,29.86,10.0,ESE,10.4,-,N/A,,Clear,120,2012-12-07 03:55:00
10:15 PM,53.6,50.0,88,29.86,10.0,SE,11.5,-,N/A,,Clear,130,2012-12-07 04:15:00
10:35 PM,53.6,50.0,88,29.86,10.0,SE,9.2,-,N/A,,Clear,130,2012-12-07 04:35:00
10:55 PM,53.6,50.0,88,29.86,10.0,SE,9.2,-,N/A,,Clear,130,2012-12-07 04:55:00
11:15 PM,51.8,50.0,94,29.86,10.0,SE,9.2,-,N/A,,Clear,130,2012-12-07 05:15:00
11:35 PM,51.8,50.0,94,29.86,7.0,ESE,6.9,-,N/A,,Clear,110,2012-12-07 05:35:00
11:55 PM,51.8,50.0,94,29.86,7.0,ESE,6.9,-,N/A,,Clear,120,2012-12-07 05:55:00